Zurück zum Katalog

STARLINK-3857

AktivKommunikationVLEO
NORAD 52494·PAYLOAD·🇺🇸 United States

Gestartet May 6, 2022 von Cape Canaveral Space Force Station

Loading…

Nächste Überflüge (nächste 24 Stunden)

TLE

AktuellSource: CelesTrak SupGP

Epoche: Sep 14, 2026, 21:07 UTC

1 52494C 22049AV  26257.88034722  .00017530  00000+0  51796-3 0  2570
2 52494  53.1563 264.3341 0001261  96.4997  82.7852 15.34379621    10

Verfolge STARLINK-3857 in Echtzeit mit AllMySat

Download on the App Store